Torna al catalogo

COSMOS 2251 DEB

AttivoLEO
NORAD 35446·DEBRIS·🇷🇺 Russia

Lanciato Jun 16, 1993 da Plesetsk Cosmodrome

Loading…

Prossimi Passaggi (prossime 24 ore)

TLE

AggiornatoSource: Space-Track

Epoca: Sep 14, 2026, 10:29 UTC

1 35446U 93036AKQ 26257.43730722  .00000187  00000-0  48933-4 0  9990
2 35446  74.0475 156.7906 0076226 205.8976 153.8365 14.54854270920175

Traccia COSMOS 2251 DEB in tempo reale con AllMySat

Download on the App Store